User: anonymous   Login
Location: Palombina Nuova
(43.6167°N, 13.4000°E)
Time: 07:40:19
(UTC+00:00)
Language:

Cosmos 1140 Rocket - Orbit

View from above orbital plane
View from above orbital plane
View from above satellite
View from above satellite

Ground track
Ground track

The orbit data is extracted from the following two-line orbital elements,

1 11574U 79089B   20156.79743413 +.00000001 +00000-0 +85743-5 0  9996
2 11574 074.0710 018.7095 0015756 004.1329 355.9954 14.40755909133014
Epoch (UTC): 04 June 2020 19:08:18
Eccentricity: 0.0015756
inclination: 74.0710°
perigee height: 745 km
apogee height: 767 km
right ascension of ascending node: 18.7095°
argument of perigee: 4.1329°
revolutions per day: 14.40755909
mean anomaly at epoch: 355.9954°
orbit number at epoch: 13301

The dashed part of the orbit path shows where the satellite is in the earth's shadow,  

DLR